Miscellaneous Local Product
Issued by NWS North Platte, NE

Home | Current Version | Previous Version | Graphics & Text | Print | Product List | Glossary On
Versions: 1 2 3 4 5 6 7 8 9 10 11 12 13 14 15 16 17 18 19 20 21 22 23 24 25 26 27 28 29 30 31 32 33 34 35 36 37 38 39 40 41 42 43 44 45 46 47 48 49 50
000
AXUS43 KLBF 030510
MISLBF


WESTERN AND NORTH CENTRAL NEBRASKA HOURLY WEATHER ROUNDUP
NATIONAL WEATHER SERVICE NORTH PLATTE NE
1200 AM CDT FRI JUL 03 2015

***STATIONS NOT REPORTING VARIABLES SUCH AS SKY/WEATHER OR
PRESSURE ARE PROVIDED BY THE NEBRASKA DEPARTMENT OF
ROADS...RAWS...AND APRS NETWORKS...AND ARE NOT UNDER
NATIONAL WEATHER SERVICE QUALITY CONTROL***

...OBSERVATIONS IN AND NEAR THE EASTERN PANHANDLE OF NEBRASKA...

CITY           SKY/WX    TMP DP  RH WIND       PRES   REMARKS
PINE RIDGE     CLEAR     63  58  83 CALM      30.09S
CHADRON        MOCLDY    65  61  87 CALM      30.10S
ALLIANCE       CLEAR     62  58  86 CALM      30.12S
SIDNEY         CLEAR     62  59  90 S3        30.15S
WHITECLAY        N/A     60  58  92 SE3         N/A
CRESCENT LAKE    N/A     67  58  73 NE6         N/A
BIG SPRINGS      N/A     66  62  86 CALM        N/A
$$

...OBSERVATIONS IN NORTH CENTRAL NEBRASKA...

CITY           SKY/WX    TMP DP  RH WIND       PRES   REMARKS
VALENTINE      MOCLDY    66  61  84 CALM      30.04S
THEDFORD       CLEAR     64  61  88 CALM      30.07S
AINSWORTH      CLEAR     63  62  97 CALM      30.03F
O`NEILL        CLOUDY    65  64  96 CALM      30.03S FOG
ORD            MOCLDY    64  62  93 CALM      30.01R
BROKEN BOW     CLEAR     63  61  93 CALM      30.04R
VALENTINE NWR    N/A     65  60  82 NE3         N/A
SPRINGVIEW       N/A     61  59  92 CALM        N/A
HALSEY           N/A     66  58  77 NE3         N/A
BREWSTER         N/A     65  62  91 CALM        N/A
ROSE             N/A     76  75  99 E3          N/A
NEWPORT          N/A     65  65  99 CALM        N/A
SARGENT          N/A     64  62  92 CALM        N/A
CHAMBERS         N/A     64  62  94 E3          N/A
EWING            N/A     64  62  94 CALM        N/A
$$

...OBSERVATIONS IN SOUTHWEST NEBRASKA AND FAR NORTHEAST COLORADO...

CITY           SKY/WX    TMP DP  RH WIND       PRES   REMARKS
WRAY           FAIR      69  58  68 CALM      30.11S
HOLYOKE        FAIR      66  55  68 NE7       30.12S
IMPERIAL       CLEAR     65  59  81 CALM      30.09R
OGALLALA       CLEAR     65  61  88 CALM      30.09S
NORTH PLATTE   CLEAR     65  58  78 CALM      30.06R
MCCOOK         CLEAR     67  60  78 N5        30.04R
LEXINGTON      CLEAR     66  63  90 CALM      30.04R
PAXTON           N/A     66  60  82 CALM        N/A
GOTHENBURG       N/A     66  56  70 SE3         N/A
CALLAWAY         N/A     64  60  86 NE3         N/A
$$

...NORTH PLATTE AREA...

CITY           SKY/WX    TMP DP  RH WIND       PRES   REMARKS
AIRPORT        CLEAR     65  58  78 CALM      30.06R
DOWNTOWN         N/A     67  59  75 CALM        N/A
HILLCREST        N/A     68  58  70 NE7         N/A
$$

...SOME WEATHER OBSERVATIONS FROM AROUND THE REGION...

CITY           SKY/WX    TMP DP  RH WIND       PRES   REMARKS
DENVER         MOCLDY    63  57  81 W7        30.24R
LARAMIE        MOCLDY    57  51  80 E9        30.30F
CHEYENNE       PTCLDY    64  53  67 SW5       30.26S
SCOTTSBLUFF    MOCLDY    69  61  75 CALM      30.14R
RAPID CITY     MOCLDY    63  58  83 N6        30.10S
PIERRE         CLEAR     65  63  93 SE3       29.99R
WINNER         FAIR      66  60  81 S5        30.01S
SIOUX FALLS    CLEAR     60  58  92 CALM      30.01S
OMAHA          CLOUDY    65  57  75 E3        29.99R
GRAND ISLAND   CLOUDY    66  64  93 NE5       30.01R
KANSAS CITY    CLOUDY    68  66  93 NE6       29.94F FOG
WICHITA        PTCLDY    71  67  87 S5        29.95S
HAYS           CLEAR     73  59  60 CALM      29.99S
LIBERAL        PTCLDY    68  63  83 CALM      30.06R
GOODLAND       PTCLDY    65  55  70 E5        30.10S
$$



USA.gov is the U.S. government's official web portal to all federal, state and local government web resources and services.